| time (UTC) | temp F | wind direction | speed MPH | gust MPH | rain 1hr in | rain 24hr in | rain mn in | humidity % | barometer mb |
| 20260507165556 | 61 | 9 | 4.0 | 13.0 | 0.00 | 0.34 | 0.24 | 40 | 1008.7 |
| 20260507165056 | 62 | 327 | 5.0 | 14.0 | 0.00 | 0.34 | 0.24 | 50 | 1008.7 |
| 20260507164557 | 61 | 281 | 4.0 | 14.0 | 0.00 | 0.34 | 0.24 | 44 | 1008.7 |
| 20260507164100 | 61 | 335 | 4.0 | 12.0 | 0.00 | 0.34 | 0.24 | 47 | 1008.8 |
| 20260507163553 | 61 | 273 | 5.0 | 12.0 | 0.00 | 0.34 | 0.24 | 48 | 1008.9 |
| 20260507163059 | 61 | 5 | 7.0 | 12.0 | 0.00 | 0.34 | 0.24 | 44 | 1009.0 |
| 20260507162557 | 61 | 297 | 4.0 | 15.0 | 0.00 | 0.34 | 0.24 | 49 | 1009.0 |
| 20260507162056 | 61 | 328 | 7.0 | 15.0 | 0.00 | 0.34 | 0.24 | 45 | 1009.1 |
| 20260507161556 | 61 | 282 | 5.0 | 14.0 | 0.00 | 0.34 | 0.24 | 48 | 1009.0 |
| 20260507161055 | 61 | 72 | 3.0 | 13.0 | 0.00 | 0.34 | 0.24 | 46 | 1009.2 |
| 20260507160556 | 60 | 318 | 2.0 | 13.0 | 0.00 | 0.34 | 0.24 | 51 | 1009.2 |
| 20260507160057 | 60 | 44 | 5.0 | 13.0 | 0.00 | 0.34 | 0.24 | 47 | 1009.3 |
| 20260507155556 | 61 | 327 | 5.0 | 13.0 | 0.00 | 0.34 | 0.24 | 50 | 1009.2 |
| 20260507155056 | 61 | 325 | 5.0 | 12.0 | 0.00 | 0.34 | 0.24 | 47 | 1009.4 |
| 20260507154602 | 61 | 336 | 4.0 | 12.0 | 0.00 | 0.34 | 0.24 | 55 | 1009.3 |
| 20260507154057 | 60 | 13 | 4.0 | 13.0 | 0.00 | 0.34 | 0.24 | 50 | 1009.6 |
| 20260507153557 | 60 | 290 | 6.0 | 13.0 | 0.00 | 0.34 | 0.24 | 51 | 1009.5 |
| 20260507153102 | 60 | 302 | 4.0 | 10.0 | 0.00 | 0.34 | 0.24 | 51 | 1009.5 |
| 20260507152557 | 60 | 282 | 5.0 | 14.0 | 0.00 | 0.34 | 0.24 | 48 | 1009.6 |
| 20260507152057 | 60 | 301 | 4.0 | 14.0 | 0.00 | 0.34 | 0.24 | 57 | 1009.7 |
| 20260507151559 | 60 | 265 | 7.0 | 14.0 | 0.00 | 0.34 | 0.24 | 50 | 1009.6 |
| 20260507151057 | 60 | 287 | 6.0 | 13.0 | 0.00 | 0.34 | 0.24 | 52 | 1009.8 |
| 20260507150557 | 60 | 36 | 3.0 | 11.0 | 0.00 | 0.34 | 0.24 | 55 | 1009.7 |
| 20260507150058 | 60 | 10 | 5.0 | 9.0 | 0.00 | 0.34 | 0.24 | 54 | 1009.8 |
| 20260507145556 | 59 | 311 | 4.0 | 12.0 | 0.00 | 0.34 | 0.24 | 56 | 1009.7 |
| 20260507145057 | 59 | 360 | 3.0 | 12.0 | 0.00 | 0.34 | 0.24 | 52 | 1009.7 |
| 20260507144556 | 57 | 36 | 3.0 | 13.0 | 0.00 | 0.34 | 0.24 | 51 | 1009.7 |
| 20260507144057 | 58 | 302 | 5.0 | 13.0 | 0.00 | 0.34 | 0.24 | 55 | 1009.7 |
| 20260507143556 | 57 | 29 | 6.0 | 12.0 | 0.00 | 0.34 | 0.24 | 50 | 1009.9 |
| 20260507143055 | 58 | 273 | 5.0 | 12.0 | 0.00 | 0.34 | 0.24 | 55 | 1009.8 |
| 20260507142556 | 57 | 65 | 6.0 | 12.0 | 0.00 | 0.34 | 0.24 | 55 | 1009.9 |
| 20260507142057 | 57 | 304 | 4.0 | 10.0 | 0.00 | 0.34 | 0.24 | 53 | 1009.9 |
| 20260507141557 | 57 | 28 | 4.0 | 10.0 | 0.00 | 0.34 | 0.24 | 59 | 1009.8 |
| 20260507141057 | 57 | 317 | 5.0 | 15.0 | 0.00 | 0.34 | 0.24 | 58 | 1009.7 |
| 20260507140558 | 57 | 297 | 5.0 | 15.0 | 0.00 | 0.34 | 0.24 | 62 | 1009.8 |
| 20260507140103 | 57 | 296 | 3.0 | 11.0 | 0.00 | 0.34 | 0.24 | 62 | 1009.9 |
| 20260507135559 | 57 | 289 | 4.0 | 11.0 | 0.00 | 0.34 | 0.24 | 63 | 1009.8 |
| 20260507135057 | 56 | 292 | 3.0 | 13.0 | 0.00 | 0.34 | 0.24 | 67 | 1009.9 |
| 20260507134600 | 56 | 277 | 5.0 | 13.0 | 0.00 | 0.34 | 0.24 | 70 | 1009.8 |
| 20260507134057 | 55 | 47 | 6.0 | 13.0 | 0.00 | 0.34 | 0.24 | 68 | 1009.8 |
| 20260507133557 | 55 | 307 | 6.0 | 16.0 | 0.00 | 0.34 | 0.24 | 74 | 1009.8 |
| 20260507133106 | 55 | 325 | 3.0 | 16.0 | 0.00 | 0.34 | 0.24 | 75 | 1009.7 |
| 20260507132555 | 55 | 271 | 6.0 | 16.0 | 0.00 | 0.34 | 0.24 | 76 | 1009.4 |
| 20260507132057 | 54 | 261 | 4.0 | 10.0 | 0.00 | 0.34 | 0.24 | 79 | 1009.6 |
| 20260507131602 | 54 | 350 | 3.0 | 8.0 | 0.00 | 0.34 | 0.24 | 83 | 1009.4 |
| 20260507131058 | 54 | 334 | 2.0 | 7.0 | 0.00 | 0.34 | 0.24 | 89 | 1009.6 |
| 20260507130557 | 52 | 0 | 2.0 | 8.0 | 0.00 | 0.34 | 0.24 | 90 | 1009.7 |
| 20260507130110 | 53 | 294 | 2.0 | 8.0 | 0.00 | 0.34 | 0.24 | 91 | 1009.6 |
| 20260507125603 | 51 | 311 | 2.0 | 9.0 | 0.00 | 0.34 | 0.24 | 93 | 1009.7 |
| 20260507125100 | 50 | 265 | 1.0 | 13.0 | 0.00 | 0.34 | 0.24 | 94 | 1009.5 |
| 20260507124558 | 50 | 348 | 3.0 | 13.0 | 0.00 | 0.34 | 0.24 | 94 | 1009.6 |
| 20260507124054 | 50 | 335 | 3.0 | 10.0 | 0.00 | 0.34 | 0.24 | 95 | 1009.7 |
| 20260507123554 | 50 | 5 | 2.0 | 9.0 | 0.00 | 0.34 | 0.24 | 95 | 1009.6 |
| 20260507123057 | 49 | 13 | 2.0 | 9.0 | 0.00 | 0.34 | 0.24 | 96 | 1009.6 |
| 20260507122554 | 49 | 329 | 1.0 | 10.0 | 0.00 | 0.34 | 0.24 | 96 | 1009.6 |
| 20260507122058 | 49 | 327 | 2.0 | 11.0 | 0.00 | 0.34 | 0.24 | 96 | 1009.6 |
| 20260507121607 | 48 | 5 | 4.0 | 11.0 | 0.00 | 0.34 | 0.24 | 96 | 1009.7 |
| 20260507121055 | 48 | 0 | 3.0 | 10.0 | 0.00 | 0.34 | 0.24 | 96 | 1009.8 |
| 20260507120557 | 48 | 294 | 2.0 | 10.0 | 0.00 | 0.34 | 0.24 | 96 | 1009.8 |
| 20260507115558 | 48 | 286 | 2.0 | 9.0 | 0.00 | 0.34 | 0.24 | 96 | 1009.4 |
| 20260507115058 | 48 | 11 | 3.0 | 9.0 | 0.00 | 0.34 | 0.24 | 96 | 1009.2 |
| 20260507114613 | 48 | 252 | 2.0 | 8.0 | 0.00 | 0.34 | 0.24 | 96 | 1009.3 |
| 20260507114100 | 48 | 322 | 2.0 | 5.0 | 0.00 | 0.34 | 0.24 | 96 | 1009.2 |
| 20260507113558 | 48 | 291 | 1.0 | 6.0 | 0.00 | 0.34 | 0.24 | 96 | 1009.4 |
| 20260507113101 | 48 | 321 | 2.0 | 8.0 | 0.00 | 0.34 | 0.24 | 96 | 1009.2 |
| 20260507112557 | 48 | 306 | 1.0 | 8.0 | 0.00 | 0.34 | 0.24 | 96 | 1009.3 |
| 20260507112101 | 49 | 5 | 0.0 | 3.0 | 0.00 | 0.34 | 0.24 | 96 | 1009.2 |
| 20260507111606 | 48 | 0 | 0.0 | 0.0 | 0.00 | 0.34 | 0.24 | 96 | 1009.3 |
| 20260507111057 | 48 | 0.0 | 0.0 | 0.00 | 0.34 | 0.24 | 96 | 1009.3 | |
| 20260507110557 | 48 | 0.0 | 0.0 | 0.00 | 0.34 | 0.24 | 96 | 1009.2 | |
| 20260507110110 | 48 | 0.0 | 0.0 | 0.00 | 0.34 | 0.24 | 96 | 1009.0 | |
| 20260507105555 | 48 | 0.0 | 0.0 | 0.00 | 0.34 | 0.24 | 96 | 1008.9 | |
| 20260507105054 | 49 | 0.0 | 0.0 | 0.00 | 0.34 | 0.24 | 96 | 1008.9 | |
| 20260507104556 | 49 | 0.0 | 0.0 | 0.00 | 0.34 | 0.24 | 96 | 1008.8 | |
| 20260507104054 | 48 | 0.0 | 0.0 | 0.01 | 0.34 | 0.24 | 96 | 1008.7 | |
| 20260507103557 | 49 | 0.0 | 0.0 | 0.01 | 0.34 | 0.24 | 96 | 1008.7 | |
| 20260507103056 | 49 | 0.0 | 0.0 | 0.01 | 0.34 | 0.24 | 96 | 1008.7 | |
| 20260507102558 | 49 | 0.0 | 0.0 | 0.01 | 0.34 | 0.24 | 96 | 1008.4 | |
| 20260507102058 | 48 | 0.0 | 0.0 | 0.01 | 0.34 | 0.24 | 96 | 1008.6 | |
| 20260507101604 | 48 | 0.0 | 0.0 | 0.02 | 0.34 | 0.24 | 96 | 1008.9 | |
| 20260507101058 | 48 | 0.0 | 0.0 | 0.02 | 0.34 | 0.24 | 96 | 1008.8 | |
| 20260507100557 | 48 | 0.0 | 0.0 | 0.02 | 0.34 | 0.24 | 95 | 1008.7 | |
| 20260507100058 | 48 | 0.0 | 0.0 | 0.02 | 0.34 | 0.24 | 95 | 1008.7 | |
| 20260507095558 | 48 | 0.0 | 0.0 | 0.03 | 0.34 | 0.24 | 95 | 1008.8 | |
| 20260507095101 | 48 | 0.0 | 0.0 | 0.04 | 0.34 | 0.24 | 96 | 1008.6 | |
| 20260507094557 | 48 | 0.0 | 0.0 | 0.04 | 0.34 | 0.24 | 96 | 1008.7 | |
| 20260507094057 | 48 | 0.0 | 0.0 | 0.03 | 0.33 | 0.23 | 96 | 1008.5 | |
| 20260507093557 | 48 | 0.0 | 0.0 | 0.03 | 0.33 | 0.23 | 96 | 1008.5 | |
| 20260507093059 | 48 | 0.0 | 0.0 | 0.03 | 0.33 | 0.23 | 95 | 1008.5 | |
| 20260507092601 | 48 | 0.0 | 0.0 | 0.03 | 0.33 | 0.23 | 95 | 1008.1 | |
| 20260507092054 | 48 | 0.0 | 0.0 | 0.04 | 0.33 | 0.23 | 95 | 1007.9 | |
| 20260507091601 | 48 | 0.0 | 0.0 | 0.03 | 0.32 | 0.22 | 95 | 1007.9 | |
| 20260507091054 | 48 | 0.0 | 0.0 | 0.03 | 0.32 | 0.22 | 95 | 1007.9 | |
| 20260507090556 | 48 | 0.0 | 0.0 | 0.04 | 0.32 | 0.22 | 95 | 1007.8 | |
| 20260507090058 | 48 | 0.0 | 0.0 | 0.05 | 0.32 | 0.22 | 95 | 1007.9 | |
| 20260507085558 | 48 | 0.0 | 0.0 | 0.04 | 0.31 | 0.21 | 95 | 1007.9 | |
| 20260507085058 | 49 | 0.0 | 0.0 | 0.04 | 0.30 | 0.20 | 95 | 1008.2 | |
| 20260507084557 | 49 | 0.0 | 0.0 | 0.04 | 0.30 | 0.20 | 95 | 1008.2 | |
| 20260507084101 | 49 | 0.0 | 0.0 | 0.04 | 0.30 | 0.20 | 95 | 1008.0 | |
| 20260507083558 | 49 | 0.0 | 0.0 | 0.04 | 0.30 | 0.20 | 95 | 1008.1 | |
| 20260507083056 | 49 | 0.0 | 0.0 | 0.05 | 0.30 | 0.20 | 95 | 1008.0 | |
| 20260507082557 | 49 | 0.0 | 0.0 | 0.05 | 0.30 | 0.20 | 95 | 1008.1 | |
| 20260507082100 | 49 | 0.0 | 0.0 | 0.04 | 0.29 | 0.19 | 95 | 1007.9 | |
| 20260507081602 | 49 | 0.0 | 0.0 | 0.05 | 0.29 | 0.19 | 95 | 1007.6 | |
| 20260507081057 | 49 | 0.0 | 0.0 | 0.06 | 0.29 | 0.19 | 95 | 1007.9 | |
| 20260507080559 | 49 | 0.0 | 0.0 | 0.05 | 0.28 | 0.18 | 95 | 1008.1 | |
| 20260507080100 | 49 | 0.0 | 0.0 | 0.04 | 0.27 | 0.17 | 95 | 1008.3 | |
| 20260507075557 | 49 | 0.0 | 0.0 | 0.05 | 0.27 | 0.17 | 95 | 1008.4 | |
| 20260507075058 | 49 | 0.0 | 0.0 | 0.04 | 0.26 | 0.16 | 95 | 1008.2 | |
| 20260507074608 | 49 | 0.0 | 0.0 | 0.05 | 0.26 | 0.16 | 95 | 1007.9 | |
| 20260507074054 | 49 | 0.0 | 0.0 | 0.05 | 0.26 | 0.16 | 95 | 1007.7 | |
| 20260507073554 | 49 | 0.0 | 0.0 | 0.05 | 0.26 | 0.16 | 95 | 1007.9 | |
| 20260507073055 | 50 | 0.0 | 0.0 | 0.06 | 0.25 | 0.15 | 95 | 1008.1 | |
| 20260507072557 | 50 | 0.0 | 0.0 | 0.09 | 0.25 | 0.15 | 95 | 1008.1 | |
| 20260507072058 | 50 | 0.0 | 0.0 | 0.11 | 0.25 | 0.15 | 95 | 1008.4 | |
| 20260507071556 | 50 | 0.0 | 0.0 | 0.13 | 0.24 | 0.14 | 94 | 1008.4 | |
| 20260507071058 | 50 | 0.0 | 0.0 | 0.12 | 0.23 | 0.13 | 94 | 1008.1 | |
| 20260507070558 | 50 | 0.0 | 0.0 | 0.13 | 0.23 | 0.13 | 94 | 1008.3 | |
| 20260507070058 | 51 | 0.0 | 0.0 | 0.13 | 0.23 | 0.13 | 94 | 1008.1 | |
| 20260507065557 | 51 | 0.0 | 0.0 | 0.12 | 0.22 | 0.12 | 94 | 1007.9 | |
| 20260507065057 | 51 | 0.0 | 0.0 | 0.12 | 0.22 | 0.12 | 94 | 1007.9 | |
| 20260507064555 | 51 | 0.0 | 0.0 | 0.11 | 0.21 | 0.11 | 94 | 1007.7 | |
| 20260507064058 | 51 | 0.0 | 0.0 | 0.11 | 0.21 | 0.11 | 94 | 1008.0 | |
| 20260507063557 | 51 | 0.0 | 0.0 | 0.11 | 0.21 | 0.11 | 94 | 1008.2 | |
| 20260507063100 | 51 | 0.0 | 0.0 | 0.09 | 0.19 | 0.09 | 94 | 1008.0 | |
| 20260507062554 | 51 | 0.0 | 0.0 | 0.06 | 0.16 | 0.06 | 94 | 1007.9 | |
| 20260507062054 | 52 | 0.0 | 0.0 | 0.04 | 0.14 | 0.04 | 94 | 1008.3 | |
| 20260507061606 | 52 | 0.0 | 0.0 | 0.01 | 0.11 | 0.01 | 94 | 1007.9 | |
| 20260507061054 | 51 | 0.0 | 0.0 | 0.01 | 0.11 | 0.01 | 94 | 1007.0 | |
| 20260507060558 | 52 | 0.0 | 0.0 | 0.00 | 0.10 | 0.00 | 94 | 1007.0 | |
| 20260507060057 | 52 | 0.0 | 0.0 | 0.00 | 0.10 | 0.00 | 94 | 1007.1 | |
| 20260507055555 | 52 | 0.0 | 0.0 | 0.00 | 0.10 | 0.00 | 95 | 1007.2 | |
| 20260507055059 | 52 | 0.0 | 0.0 | 0.00 | 0.10 | 0.00 | 95 | 1007.1 | |
| 20260507054637 | 52 | 0.0 | 0.0 | 0.00 | 0.10 | 0.00 | 95 | 1007.3 | |
| 20260507054054 | 52 | 0.0 | 0.0 | 0.00 | 0.10 | 0.00 | 95 | 1007.4 | |
| 20260507053554 | 52 | 0.0 | 0.0 | 0.00 | 0.10 | 0.00 | 95 | 1007.2 | |
| 20260507053100 | 52 | 0.0 | 0.0 | 0.00 | 0.10 | 0.00 | 95 | 1007.2 | |
| 20260507052555 | 53 | 0.0 | 0.0 | 0.00 | 0.10 | 0.00 | 95 | 1007.1 | |
| 20260507052055 | 53 | 0.0 | 0.0 | 0.00 | 0.10 | 0.00 | 95 | 1007.3 | |
| 20260507051556 | 53 | 0.0 | 0.0 | 0.00 | 0.10 | 0.00 | 95 | 1007.4 | |
| 20260507051053 | 53 | 0.0 | 0.0 | 0.00 | 0.10 | 0.00 | 95 | 1007.4 | |
| 20260507050553 | 53 | 0.0 | 0.0 | 0.00 | 0.10 | 0.00 | 96 | 1007.4 | |
| 20260507050058 | 54 | 0.0 | 0.0 | 0.00 | 0.10 | 0.00 | 95 | 1007.3 | |
| 20260507045557 | 54 | 0.0 | 0.0 | 0.00 | 0.10 | 0.00 | 96 | 1007.3 | |
| 20260507045054 | 54 | 0.0 | 0.0 | 0.00 | 0.10 | 0.00 | 95 | 1007.3 | |
| 20260507044601 | 54 | 0.0 | 0.0 | 0.00 | 0.10 | 0.00 | 95 | 1007.4 | |
| 20260507044057 | 55 | 0.0 | 0.0 | 0.00 | 0.10 | 0.00 | 95 | 1007.7 | |
| 20260507043557 | 55 | 0.0 | 0.0 | 0.00 | 0.10 | 0.00 | 96 | 1007.6 | |
| 20260507043055 | 55 | 0.0 | 0.0 | 0.00 | 0.10 | 0.00 | 96 | 1007.6 | |
| 20260507042554 | 55 | 0.0 | 0.0 | 0.00 | 0.10 | 0.00 | 96 | 1007.4 | |
| 20260507042053 | 55 | 0.0 | 0.0 | 0.00 | 0.10 | 0.00 | 96 | 1007.6 | |
| 20260507041602 | 55 | 0.0 | 0.0 | 0.00 | 0.10 | 0.00 | 96 | 1007.7 | |
| 20260507041055 | 55 | 0.0 | 0.0 | 0.00 | 0.10 | 0.00 | 96 | 1007.5 | |
| 20260507040558 | 56 | 0.0 | 0.0 | 0.00 | 0.10 | 0.00 | 96 | 1007.4 | |
| 20260507040058 | 56 | 0.0 | 0.0 | 0.00 | 0.10 | 0.00 | 96 | 1007.3 | |
| 20260507035556 | 56 | 0.0 | 0.0 | 0.00 | 0.10 | 0.10 | 95 | 1007.4 | |
| 20260507035055 | 57 | 0.0 | 0.0 | 0.00 | 0.10 | 0.10 | 95 | 1007.3 | |
| 20260507034600 | 57 | 0.0 | 0.0 | 0.01 | 0.10 | 0.10 | 95 | 1007.4 | |
| 20260507034054 | 58 | 0.0 | 0.0 | 0.04 | 0.10 | 0.10 | 96 | 1007.3 | |
| 20260507033558 | 58 | 0.0 | 0.0 | 0.04 | 0.10 | 0.10 | 96 | 1007.2 | |
| 20260507033101 | 58 | 0.0 | 0.0 | 0.04 | 0.10 | 0.10 | 96 | 1007.2 | |
| 20260507032557 | 58 | 0.0 | 0.0 | 0.04 | 0.10 | 0.10 | 96 | 1007.2 | |
| 20260507032057 | 58 | 0.0 | 0.0 | 0.04 | 0.10 | 0.10 | 96 | 1007.4 | |
| 20260507031607 | 58 | 0.0 | 0.0 | 0.04 | 0.10 | 0.10 | 96 | 1007.5 | |
| 20260507031057 | 58 | 0.0 | 0.0 | 0.04 | 0.10 | 0.10 | 96 | 1007.5 | |
| 20260507030556 | 58 | 0.0 | 0.0 | 0.04 | 0.10 | 0.10 | 96 | 1007.4 | |
| 20260507030059 | 58 | 0.0 | 0.0 | 0.04 | 0.10 | 0.10 | 96 | 1007.2 | |
| 20260507025559 | 58 | 0.0 | 0.0 | 0.04 | 0.10 | 0.10 | 96 | 1007.4 | |
| 20260507025057 | 58 | 0.0 | 0.0 | 0.04 | 0.10 | 0.10 | 96 | 1007.4 | |
| 20260507024559 | 58 | 0.0 | 0.0 | 0.03 | 0.09 | 0.09 | 96 | 1007.4 | |
| 20260507024056 | 58 | 0.0 | 0.0 | 0.00 | 0.06 | 0.06 | 96 | 1007.5 | |
| 20260507023556 | 58 | 0.0 | 0.0 | 0.00 | 0.06 | 0.06 | 96 | 1007.1 | |
| 20260507023105 | 57 | 0.0 | 0.0 | 0.00 | 0.06 | 0.06 | 96 | 1007.1 | |
| 20260507022557 | 57 | 0.0 | 0.0 | 0.00 | 0.06 | 0.06 | 96 | 1007.2 | |
| 20260507022058 | 57 | 0.0 | 0.0 | 0.00 | 0.06 | 0.06 | 96 | 1007.2 | |
| 20260507021602 | 57 | 0.0 | 0.0 | 0.00 | 0.06 | 0.06 | 96 | 1007.2 | |
| 20260507021057 | 57 | 0.0 | 0.0 | 0.00 | 0.06 | 0.06 | 95 | 1007.3 | |
| 20260507020557 | 57 | 0.0 | 0.0 | 0.00 | 0.06 | 0.06 | 96 | 1007.2 | |
| 20260507020100 | 57 | 0.0 | 0.0 | 0.00 | 0.06 | 0.06 | 95 | 1007.2 | |
| 20260507015556 | 57 | 0.0 | 0.0 | 0.00 | 0.06 | 0.06 | 95 | 1007.2 | |
| 20260507015057 | 57 | 0.0 | 0.0 | 0.00 | 0.06 | 0.06 | 95 | 1007.5 | |
| 20260507014604 | 57 | 0.0 | 0.0 | 0.00 | 0.06 | 0.06 | 96 | 1007.1 | |
| 20260507014057 | 57 | 0.0 | 0.0 | 0.00 | 0.06 | 0.06 | 96 | 1007.3 | |
| 20260507013556 | 57 | 0.0 | 0.0 | 0.00 | 0.06 | 0.06 | 96 | 1007.2 | |
| 20260507013056 | 57 | 0.0 | 0.0 | 0.00 | 0.06 | 0.06 | 96 | 1007.2 | |
| 20260507012557 | 57 | 0.0 | 0.0 | 0.00 | 0.06 | 0.06 | 95 | 1007.3 | |
| 20260507012100 | 57 | 0.0 | 0.0 | 0.00 | 0.06 | 0.06 | 95 | 1007.2 | |
| 20260507011555 | 57 | 0.0 | 0.0 | 0.00 | 0.06 | 0.06 | 96 | 1007.4 | |
| 20260507011059 | 57 | 0.0 | 0.0 | 0.00 | 0.06 | 0.06 | 96 | 1007.2 | |
| 20260507010555 | 57 | 0.0 | 0.0 | 0.00 | 0.06 | 0.06 | 95 | 1007.3 | |
| 20260507010107 | 57 | 0.0 | 0.0 | 0.00 | 0.06 | 0.06 | 95 | 1007.1 | |
| 20260507005556 | 57 | 0.0 | 0.0 | 0.00 | 0.06 | 0.06 | 95 | 1007.0 | |
| 20260507005056 | 57 | 0.0 | 0.0 | 0.00 | 0.06 | 0.06 | 95 | 1007.0 | |
| 20260507004557 | 58 | 0.0 | 0.0 | 0.00 | 0.06 | 0.06 | 95 | 1007.0 | |
| 20260507004057 | 57 | 0.0 | 0.0 | 0.00 | 0.06 | 0.06 | 95 | 1006.9 | |
| 20260507003555 | 57 | 0.0 | 0.0 | 0.00 | 0.06 | 0.06 | 95 | 1006.9 | |
| 20260507003058 | 57 | 0.0 | 0.0 | 0.00 | 0.06 | 0.06 | 95 | 1006.8 | |
| 20260507002556 | 58 | 0.0 | 0.0 | 0.00 | 0.06 | 0.06 | 96 | 1006.6 | |
| 20260507002055 | 58 | 0.0 | 0.0 | 0.00 | 0.06 | 0.06 | 95 | 1006.9 | |
| 20260507001605 | 58 | 0.0 | 0.0 | 0.00 | 0.06 | 0.06 | 95 | 1007.0 | |
| 20260507001113 | 58 | 0.0 | 0.0 | 0.00 | 0.06 | 0.06 | 95 | 1007.0 | |
| 20260507000559 | 58 | 0.0 | 0.0 | 0.00 | 0.06 | 0.06 | 95 | 1007.1 | |
| 20260507000057 | 58 | 0.0 | 0.0 | 0.00 | 0.06 | 0.06 | 95 | 1006.9 | |
| 20260506235559 | 58 | 0.0 | 0.0 | 0.00 | 0.06 | 0.06 | 95 | 1007.1 | |
| 20260506235059 | 58 | 0.0 | 0.0 | 0.00 | 0.06 | 0.06 | 95 | 1007.0 | |
| 20260506234603 | 58 | 0.0 | 0.0 | 0.00 | 0.06 | 0.06 | 95 | 1007.1 | |
| 20260506234058 | 58 | 0.0 | 0.0 | 0.00 | 0.06 | 0.06 | 95 | 1007.0 | |
| 20260506233559 | 58 | 0.0 | 0.0 | 0.00 | 0.06 | 0.06 | 95 | 1006.9 | |
| 20260506233119 | 58 | 0.0 | 0.0 | 0.00 | 0.06 | 0.06 | 95 | 1006.9 | |
| 20260506232558 | 58 | 0.0 | 0.0 | 0.00 | 0.06 | 0.06 | 95 | 1007.0 | |
| 20260506232058 | 58 | 0.0 | 0.0 | 0.00 | 0.06 | 0.06 | 95 | 1006.9 | |
| 20260506231558 | 58 | 0.0 | 0.0 | 0.00 | 0.06 | 0.06 | 95 | 1007.0 | |
| 20260506231058 | 58 | 0.0 | 0.0 | 0.00 | 0.06 | 0.06 | 95 | 1006.7 | |
| 20260506230558 | 58 | 0.0 | 0.0 | 0.00 | 0.06 | 0.06 | 95 | 1006.7 | |
| 20260506230057 | 58 | 0.0 | 0.0 | 0.00 | 0.06 | 0.06 | 95 | 1006.8 | |
| 20260506225601 | 58 | 0.0 | 0.0 | 0.00 | 0.06 | 0.06 | 95 | 1006.8 | |
| 20260506225059 | 57 | 0.0 | 0.0 | 0.00 | 0.06 | 0.06 | 95 | 1006.8 | |
| 20260506224556 | 57 | 0.0 | 0.0 | 0.00 | 0.06 | 0.06 | 95 | 1006.7 | |
| 20260506224059 | 57 | 1.0 | 2.0 | 0.00 | 0.06 | 0.06 | 95 | 1006.7 | |
| 20260506223601 | 57 | 0.0 | 3.0 | 0.00 | 0.06 | 0.06 | 95 | 1006.6 | |
| 20260506223103 | 57 | 235 | 1.0 | 7.0 | 0.00 | 0.06 | 0.06 | 95 | 1006.6 |
| 20260506222557 | 57 | 0 | 0.0 | 7.0 | 0.00 | 0.06 | 0.06 | 95 | 1006.7 |
| 20260506222059 | 57 | 235 | 2.0 | 7.0 | 0.00 | 0.06 | 0.06 | 95 | 1006.6 |
| 20260506221559 | 57 | 233 | 2.0 | 7.0 | 0.00 | 0.06 | 0.06 | 95 | 1006.7 |
| 20260506221059 | 57 | 204 | 2.0 | 7.0 | 0.00 | 0.06 | 0.06 | 95 | 1006.6 |
| 20260506220558 | 57 | 222 | 2.0 | 6.0 | 0.00 | 0.06 | 0.06 | 95 | 1006.5 |
| 20260506220059 | 57 | 223 | 3.0 | 6.0 | 0.00 | 0.06 | 0.06 | 95 | 1006.6 |
| 20260506215559 | 57 | 213 | 1.0 | 6.0 | 0.00 | 0.06 | 0.06 | 95 | 1006.5 |
| 20260506215058 | 57 | 214 | 2.0 | 6.0 | 0.00 | 0.06 | 0.06 | 95 | 1006.6 |
| 20260506214557 | 57 | 226 | 2.0 | 8.0 | 0.00 | 0.06 | 0.06 | 95 | 1006.5 |
| 20260506214058 | 57 | 231 | 2.0 | 8.0 | 0.00 | 0.06 | 0.06 | 94 | 1006.6 |
| 20260506213559 | 57 | 215 | 2.0 | 8.0 | 0.00 | 0.06 | 0.06 | 95 | 1006.5 |
| 20260506213113 | 57 | 172 | 4.0 | 11.0 | 0.01 | 0.06 | 0.06 | 94 | 1006.6 |
| 20260506212558 | 57 | 196 | 3.0 | 11.0 | 0.01 | 0.06 | 0.06 | 94 | 1006.4 |
| 20260506212100 | 57 | 248 | 4.0 | 11.0 | 0.01 | 0.06 | 0.06 | 94 | 1006.5 |
| 20260506211557 | 57 | 217 | 4.0 | 10.0 | 0.01 | 0.06 | 0.06 | 94 | 1006.5 |
| 20260506211058 | 57 | 186 | 3.0 | 9.0 | 0.01 | 0.06 | 0.06 | 94 | 1006.4 |
| 20260506210558 | 57 | 0 | 3.0 | 9.0 | 0.01 | 0.06 | 0.06 | 94 | 1006.4 |
| 20260506210057 | 57 | 0 | 4.0 | 9.0 | 0.01 | 0.06 | 0.06 | 94 | 1006.5 |
| 20260506205557 | 57 | 242 | 4.0 | 9.0 | 0.01 | 0.06 | 0.06 | 94 | 1006.6 |
| 20260506205054 | 57 | 208 | 3.0 | 11.0 | 0.01 | 0.06 | 0.06 | 94 | 1006.4 |
| 20260506204555 | 57 | 238 | 6.0 | 11.0 | 0.01 | 0.06 | 0.06 | 94 | 1006.5 |
| 20260506204054 | 57 | 227 | 4.0 | 10.0 | 0.01 | 0.06 | 0.06 | 94 | 1006.6 |
| 20260506203600 | 58 | 227 | 3.0 | 7.0 | 0.01 | 0.06 | 0.06 | 94 | 1006.6 |
| 20260506203055 | 58 | 229 | 2.0 | 9.0 | 0.00 | 0.05 | 0.05 | 94 | 1006.7 |
| 20260506202557 | 57 | 221 | 2.0 | 9.0 | 0.00 | 0.05 | 0.05 | 93 | 1006.8 |
| 20260506202056 | 57 | 218 | 4.0 | 9.0 | 0.00 | 0.05 | 0.05 | 93 | 1006.7 |
| 20260506201554 | 58 | 213 | 2.0 | 11.0 | 0.00 | 0.05 | 0.05 | 93 | 1006.9 |
| 20260506201055 | 57 | 227 | 5.0 | 11.0 | 0.00 | 0.05 | 0.05 | 93 | 1006.9 |
| 20260506200555 | 58 | 232 | 5.0 | 10.0 | 0.00 | 0.05 | 0.05 | 93 | 1006.9 |
| 20260506200054 | 58 | 213 | 3.0 | 10.0 | 0.00 | 0.05 | 0.05 | 93 | 1006.8 |
| 20260506195555 | 58 | 239 | 5.0 | 10.0 | 0.00 | 0.05 | 0.05 | 93 | 1006.8 |
| 20260506195057 | 58 | 232 | 4.0 | 12.0 | 0.00 | 0.05 | 0.05 | 93 | 1006.9 |
| 20260506194623 | 58 | 200 | 5.0 | 12.0 | 0.00 | 0.05 | 0.05 | 93 | 1006.8 |
| 20260506194058 | 58 | 230 | 4.0 | 12.0 | 0.00 | 0.05 | 0.05 | 93 | 1006.9 |
| 20260506193556 | 59 | 160 | 3.0 | 13.0 | 0.00 | 0.05 | 0.05 | 93 | 1007.0 |
| 20260506193103 | 59 | 247 | 6.0 | 13.0 | 0.00 | 0.05 | 0.05 | 93 | 1007.1 |
| 20260506192555 | 59 | 192 | 3.0 | 15.0 | 0.00 | 0.05 | 0.05 | 94 | 1007.0 |
| 20260506192053 | 59 | 248 | 6.0 | 15.0 | 0.01 | 0.05 | 0.05 | 94 | 1007.1 |
| 20260506191555 | 59 | 182 | 5.0 | 15.0 | 0.01 | 0.05 | 0.05 | 94 | 1007.1 |
| 20260506191054 | 59 | 249 | 6.0 | 14.0 | 0.02 | 0.05 | 0.05 | 94 | 1007.0 |
| 20260506190556 | 59 | 134 | 4.0 | 12.0 | 0.02 | 0.05 | 0.05 | 95 | 1007.2 |
| 20260506190057 | 59 | 219 | 5.0 | 16.0 | 0.03 | 0.05 | 0.05 | 94 | 1007.3 |
| 20260506185555 | 58 | 180 | 9.0 | 16.0 | 0.03 | 0.05 | 0.05 | 93 | 1007.6 |
| 20260506185056 | 59 | 205 | 6.0 | 12.0 | 0.04 | 0.05 | 0.05 | 94 | 1007.6 |
| 20260506184555 | 59 | 230 | 5.0 | 12.0 | 0.04 | 0.05 | 0.05 | 94 | 1007.8 |
| 20260506184055 | 58 | 178 | 4.0 | 10.0 | 0.04 | 0.05 | 0.05 | 94 | 1007.7 |
| 20260506183555 | 58 | 153 | 4.0 | 10.0 | 0.04 | 0.05 | 0.05 | 93 | 1007.8 |
| 20260506183057 | 58 | 205 | 4.0 | 14.0 | 0.04 | 0.05 | 0.05 | 93 | 1007.8 |
| 20260506182555 | 58 | 200 | 5.0 | 14.0 | 0.05 | 0.05 | 0.05 | 93 | 1007.9 |
| 20260506182055 | 58 | 155 | 6.0 | 14.0 | 0.04 | 0.04 | 0.04 | 93 | 1007.8 |
| 20260506181554 | 58 | 169 | 4.0 | 17.0 | 0.04 | 0.04 | 0.04 | 92 | 1007.7 |
| 20260506181055 | 58 | 190 | 6.0 | 18.0 | 0.03 | 0.03 | 0.03 | 92 | 1007.8 |
| 20260506180554 | 58 | 213 | 8.0 | 18.0 | 0.03 | 0.03 | 0.03 | 92 | 1007.9 |
| 20260506180106 | 58 | 210 | 4.0 | 16.0 | 0.02 | 0.02 | 0.02 | 92 | 1008.0 |
| 20260506175553 | 58 | 139 | 4.0 | 16.0 | 0.02 | 0.02 | 0.02 | 92 | 1008.0 |
| 20260506175100 | 58 | 178 | 6.0 | 13.0 | 0.01 | 0.01 | 0.01 | 91 | 1008.1 |
| 20260506174557 | 58 | 185 | 4.0 | 9.0 | 0.01 | 0.01 | 0.01 | 91 | 1008.0 |
| 20260506174053 | 58 | 179 | 3.0 | 14.0 | 0.01 | 0.01 | 0.01 | 91 | 1008.2 |
| 20260506173553 | 58 | 246 | 5.0 | 14.0 | 0.01 | 0.01 | 0.01 | 91 | 1008.1 |
| 20260506173059 | 58 | 208 | 4.0 | 10.0 | 0.01 | 0.01 | 0.01 | 91 | 1008.4 |
| 20260506172557 | 59 | 243 | 1.0 | 10.0 | 0.00 | 0.00 | 0.00 | 91 | 1008.6 |
| 20260506172058 | 59 | 182 | 3.0 | 10.0 | 0.00 | 0.00 | 0.00 | 90 | 1008.6 |
| 20260506171602 | 59 | 191 | 4.0 | 10.0 | 0.00 | 0.00 | 0.00 | 90 | 1008.7 |
| 20260506171056 | 59 | 221 | 4.0 | 8.0 | 0.00 | 0.00 | 0.00 | 90 | 1008.9 |
| 20260506170554 | 59 | 238 | 4.0 | 8.0 | 0.00 | 0.00 | 0.00 | 90 | 1009.0 |
| 20260506170106 | 59 | 217 | 0.0 | 12.0 | 0.00 | 0.00 | 0.00 | 89 | 1009.1 |